ONEWEB-0062, 45163

Orbit data source: Space-Track

ONEWEB-0062, 45163 is a payload satellite owned by One Web (UK) in LEO that was launched on Thu, 06 Feb 2020 UTC via a SOYUZ-2-1B launch vehicle from the Tyuratam Missile And Space Complex (TTMTR). Payloads include a variety of satellites, spacecraft, and rockets equipped with specific instruments for various scientific and technological missions. These include communications satellites like Starlink; space stations such as the ISS; scientific satellites like the Hubble; Earth observation satellites from companies like Planet Labs, Umbra, and HawkEye 360; GPS; miniature CubeSats for education and research; and military/defense satellites.

Loading next visibility...
ONEWEB-0062 details
Identifier
45163, 2020-008AJ
Orbit
LEO
Last TLE update13 hours ago
Origin
Flag of UKOne Web (UK)
ManufacturerOne Web
MissionOperational Commercial Communications
Bus & MotorARROW, Unknown motor
Mass148 kg wet, ~140 kg dry
Launch date (UTC)
2020-02-06 (5 years ago)
Launch vehicle
SOYUZ-2-1B
Launch site
Tyuratam Missile And Space Complex (TTMTR)
Object type
Payload
Rocket body
Debris
Shape & HBRTrap Box + 2 Pan, 5 m
Radar Cross Section2.957 m², Large (>1 m²)

Expand to show TLE details & history

TLE from 13 hours ago
0 ONEWEB-0062
1 45163U 20008AJ  24360.91340910  .00000047  00000-0  99606-4 0  9996
2 45163  87.8904 143.4874 0001497 112.5924 247.5362 13.10377812238446
Epoch: 2024-12-25T21:55Z
Definitive object data (Epoch: 2024-12-25T21:55:18.546Z)
Latitude0.00001°
Longitude79.75979°
Altitude1,225.02 km
Speed7.242 km/s
True Right ascension09h 33m 56s
True Declination0° 00' 00"
Sunlit
Object was in full shadow at TLE epoch
Visualization TLE readout
Latitude5.92565°
Longitude79.87149°
Altitude1,224.31 km
Speed7.243 km/s
Apparent Right ascension08h 35m 17s
Apparent Declination-49° 30' 48"
Sunlit
Object is in full shadow
Visualization observer readout
Local Sidereal Time10:08:01
Azimuth194.817° SSW
Elevation-1.734°
Doppler factor1
Orbital elements
Apogee altitude1,219.955 km
Perigee altitude1,217.68 km
Semi-major axis7,596.955 km
Eccentricity0.0001497
Inclination87.8904°
RAAN143.4874°
Arg. of periapsis112.5924°
True anomaly247.52035°
Mean anomaly247.5362°
Eccentric anomaly247.52827°
Mean motion3.27781 °/min
BSTAR0.000099606
Orbital period109.83 mins
Loading maneuver chart data...
Loading historical data...
Loading historical data...
Loading historical data...
Loading historical data...
Loading historical data...
Loading historical data...
Loading historical data...

ONEWEB-0062 Visibility forecast

Observer location: undefined°, undefined

Span
Click to sort rows by Start time (UTC) header in descending order
Start Az.
Max El. time (UTC)
Max El. Az.
Max El.
End time (UTC)
End Az.
13 mins2024-12-26 10:50:47.433Z202.778° SW2024-12-26 10:56:47.433Z263.691° W37.369°2024-12-26 11:03:47.433Z348.737° N
9 mins2024-12-26 20:32:47.433Z35.512° NE2024-12-26 20:36:47.433Z74.889° E21.513°2024-12-26 20:41:47.433Z122.195° SE
12 mins2024-12-26 22:21:47.433Z349.679° N2024-12-26 22:27:47.433Z258.751° W41.325°2024-12-26 22:33:47.433Z197.44° SSW
10 mins2024-12-27 08:52:47.433Z121.158° SE2024-12-27 08:56:47.433Z81.405° E23.847°2024-12-27 09:02:47.433Z24.992° NE
6 mins2024-12-27 10:40:47.433Z200.92° SSW2024-12-27 10:46:47.433Z279.485° WNW39.447°2024-12-27 10:46:47.433Z279.485° WNW
|